| time (UTC) | temp F | wind direction | speed knots | gust knots | rain 1hr in | rain 24hr in | rain mn in | humidity % | barometer mb |
| 20260510163010 | 70 | 52 | 0.0 | 0.0 | 0.00 | 0.00 | 0.00 | 83 | 1016.5 |
| 20260510161507 | 69 | 19 | 0.0 | 0.0 | 0.00 | 0.00 | 0.00 | 83 | 1016.4 |
| 20260510160006 | 68 | 184 | 0.0 | 0.0 | 0.00 | 0.00 | 0.00 | 83 | 1016.4 |
| 20260510154505 | 68 | 183 | 0.0 | 1.7 | 0.00 | 0.00 | 0.00 | 82 | 1016.5 |
| 20260510153004 | 68 | 187 | 0.9 | 2.6 | 0.00 | 0.00 | 0.00 | 82 | 1016.5 |
| 20260510151504 | 68 | 187 | 0.9 | 2.6 | 0.00 | 0.00 | 0.00 | 83 | 1016.4 |
| 20260510150103 | 69 | 11 | 0.0 | 1.7 | 0.00 | 0.00 | 0.00 | 78 | 1016.3 |
| 20260510144614 | 68 | 34 | 0.9 | 4.3 | 0.00 | 0.00 | 0.00 | 78 | 1016.1 |
| 20260510143106 | 66 | 31 | 0.0 | 1.7 | 0.00 | 0.00 | 0.00 | 83 | 1016.1 |
| 20260510141555 | 65 | 5 | 0.0 | 0.0 | 0.00 | 0.00 | 0.00 | 83 | 1015.9 |
| 20260510140048 | 64 | 5 | 0.0 | 0.9 | 0.00 | 0.00 | 0.00 | 85 | 1015.8 |
| 20260510134542 | 63 | 5 | 0.0 | 1.7 | 0.00 | 0.00 | 0.00 | 85 | 1015.5 |
| 20260510133038 | 62 | 27 | 0.0 | 0.0 | 0.00 | 0.00 | 0.00 | 87 | 1015.4 |
| 20260510131533 | 60 | 32 | 0.0 | 0.0 | 0.00 | 0.00 | 0.00 | 89 | 1015.5 |
| 20260510130029 | 59 | 82 | 0.0 | 0.0 | 0.00 | 0.00 | 0.00 | 94 | 1015.2 |
| 20260510124531 | 58 | 82 | 0.0 | 0.0 | 0.00 | 0.00 | 0.00 | 94 | 1015.1 |
| 20260510123022 | 57 | 26 | 0.0 | 0.0 | 0.00 | 0.00 | 0.00 | 93 | 1014.9 |
| 20260510121518 | 57 | 26 | 0.0 | 0.0 | 0.00 | 0.00 | 0.00 | 94 | 1015.0 |
| 20260510120014 | 56 | 25 | 0.0 | 0.0 | 0.00 | 0.00 | 0.00 | 95 | 1015.1 |
| 20260510114511 | 55 | 51 | 0.0 | 0.0 | 0.00 | 0.00 | 0.00 | 95 | 1014.8 |
| 20260510113010 | 55 | 83 | 0.0 | 0.0 | 0.00 | 0.00 | 0.00 | 95 | 1014.8 |
| 20260510111506 | 55 | 83 | 0.0 | 0.0 | 0.00 | 0.00 | 0.00 | 95 | 1014.3 |
| 20260510110005 | 55 | 164 | 0.0 | 1.7 | 0.00 | 0.00 | 0.00 | 95 | 1014.2 |
| 20260510104504 | 55 | 355 | 0.0 | 3.5 | 0.00 | 0.00 | 0.00 | 95 | 1014.4 |
| 20260510103001 | 54 | 355 | 0.0 | 0.0 | 0.00 | 0.00 | 0.00 | 95 | 1013.7 |
| 20260510101600 | 54 | 355 | 0.0 | 0.0 | 0.00 | 0.00 | 0.00 | 95 | 1013.6 |
| 20260510100116 | 54 | 355 | 0.0 | 0.0 | 0.00 | 0.00 | 0.00 | 95 | 1013.4 |
| 20260510094656 | 54 | 355 | 0.0 | 0.0 | 0.00 | 0.00 | 0.00 | 95 | 1013.4 |
| 20260510093101 | 54 | 355 | 0.0 | 0.0 | 0.00 | 0.00 | 0.00 | 94 | 1013.3 |
| 20260510091555 | 53 | 355 | 0.0 | 0.0 | 0.00 | 0.00 | 0.00 | 94 | 1013.3 |
| 20260510084611 | 53 | 355 | 0.0 | 0.0 | 0.00 | 0.00 | 0.00 | 94 | 1013.3 |
| 20260510083053 | 54 | 355 | 0.0 | 0.0 | 0.00 | 0.00 | 0.00 | 93 | 1013.1 |
| 20260510081556 | 54 | 355 | 0.9 | 1.7 | 0.00 | 0.00 | 0.00 | 93 | 1013.0 |
| 20260510080050 | 54 | 330 | 0.0 | 0.0 | 0.00 | 0.00 | 0.00 | 92 | 1012.5 |
| 20260510074548 | 54 | 330 | 0.0 | 0.0 | 0.00 | 0.00 | 0.00 | 92 | 1012.3 |
| 20260510073045 | 55 | 330 | 0.0 | 0.0 | 0.00 | 0.00 | 0.00 | 91 | 1012.4 |
| 20260510071546 | 56 | 330 | 0.0 | 0.9 | 0.00 | 0.00 | 0.00 | 91 | 1012.6 |
| 20260510070047 | 56 | 330 | 0.9 | 1.7 | 0.00 | 0.00 | 0.00 | 92 | 1012.5 |
| 20260510064542 | 56 | 330 | 0.0 | 0.0 | 0.00 | 0.00 | 0.00 | 92 | 1012.8 |
| 20260510063047 | 56 | 330 | 0.0 | 0.0 | 0.00 | 0.00 | 0.00 | 91 | 1013.0 |
| 20260510061541 | 56 | 330 | 0.0 | 0.0 | 0.00 | 0.00 | 0.00 | 91 | 1013.1 |
| 20260510060040 | 56 | 330 | 0.0 | 0.0 | 0.00 | 0.00 | 0.00 | 91 | 1013.0 |
| 20260510054538 | 56 | 330 | 0.0 | 0.0 | 0.00 | 0.00 | 0.00 | 90 | 1013.1 |
| 20260510053038 | 56 | 330 | 0.0 | 0.9 | 0.00 | 0.00 | 0.00 | 89 | 1013.0 |
| 20260510051535 | 56 | 330 | 0.0 | 0.0 | 0.00 | 0.00 | 0.00 | 89 | 1012.8 |
| 20260510050039 | 56 | 330 | 0.0 | 0.0 | 0.00 | 0.00 | 0.00 | 87 | 1012.6 |
| 20260510044534 | 57 | 330 | 0.0 | 1.7 | 0.00 | 0.00 | 0.00 | 85 | 1012.5 |
| 20260510043029 | 58 | 300 | 0.0 | 0.9 | 0.00 | 0.00 | 0.00 | 83 | 1012.3 |
| 20260510041529 | 60 | 300 | 0.0 | 0.9 | 0.00 | 0.00 | 0.00 | 80 | 1012.2 |
| 20260510040028 | 60 | 300 | 0.0 | 0.9 | 0.00 | 0.00 | 0.00 | 79 | 1012.2 |
| 20260510034529 | 60 | 300 | 0.0 | 0.0 | 0.00 | 0.00 | 0.00 | 79 | 1012.1 |
| 20260510033026 | 60 | 299 | 0.0 | 0.0 | 0.00 | 0.00 | 0.00 | 79 | 1012.1 |
| 20260510031525 | 61 | 299 | 0.0 | 0.0 | 0.00 | 0.00 | 0.00 | 78 | 1011.9 |
| 20260510030024 | 61 | 315 | 0.0 | 0.9 | 0.00 | 0.00 | 0.00 | 76 | 1011.9 |
| 20260510024522 | 62 | 315 | 0.0 | 0.9 | 0.00 | 0.00 | 0.00 | 77 | 1011.7 |
| 20260510023021 | 63 | 315 | 0.0 | 1.7 | 0.00 | 0.00 | 0.00 | 73 | 1011.4 |
| 20260510021521 | 63 | 258 | 0.0 | 0.0 | 0.00 | 0.00 | 0.00 | 74 | 1011.3 |
| 20260510020021 | 65 | 258 | 0.0 | 0.0 | 0.00 | 0.00 | 0.00 | 72 | 1011.1 |
| 20260510014520 | 65 | 258 | 0.0 | 0.9 | 0.00 | 0.00 | 0.00 | 70 | 1010.9 |
| 20260510013021 | 65 | 171 | 0.0 | 0.0 | 0.00 | 0.00 | 0.00 | 73 | 1010.7 |
| 20260510011534 | 66 | 171 | 0.0 | 0.0 | 0.00 | 0.00 | 0.00 | 74 | 1010.5 |
| 20260510010019 | 66 | 171 | 0.0 | 0.0 | 0.00 | 0.00 | 0.00 | 75 | 1010.3 |
| 20260510004617 | 70 | 171 | 0.0 | 0.0 | 0.00 | 0.00 | 0.00 | 69 | 1010.2 |
| 20260510003018 | 73 | 171 | 0.0 | 0.9 | 0.00 | 0.00 | 0.00 | 62 | 1010.0 |
| 20260510001518 | 76 | 171 | 0.0 | 1.7 | 0.00 | 0.00 | 0.00 | 53 | 1009.9 |
| 20260510000017 | 77 | 184 | 0.9 | 2.6 | 0.00 | 0.00 | 0.00 | 46 | 1009.7 |
| 20260509234515 | 78 | 195 | 0.9 | 4.3 | 0.00 | 0.00 | 0.00 | 45 | 1009.8 |
| 20260509233014 | 79 | 198 | 0.9 | 3.5 | 0.00 | 0.00 | 0.00 | 42 | 1009.7 |
| 20260509231514 | 80 | 173 | 1.7 | 3.5 | 0.00 | 0.00 | 0.00 | 40 | 1009.8 |
| 20260509230013 | 80 | 187 | 1.7 | 4.3 | 0.00 | 0.00 | 0.00 | 45 | 1009.6 |
| 20260509224512 | 80 | 190 | 0.9 | 2.6 | 0.00 | 0.00 | 0.00 | 41 | 1009.7 |
| 20260509223012 | 81 | 202 | 1.7 | 3.5 | 0.00 | 0.00 | 0.00 | 37 | 1009.6 |
| 20260509221512 | 81 | 36 | 0.9 | 1.7 | 0.00 | 0.00 | 0.00 | 38 | 1009.4 |
| 20260509220011 | 81 | 51 | 0.9 | 3.5 | 0.00 | 0.00 | 0.00 | 38 | 1009.3 |
| 20260509214510 | 81 | 192 | 0.9 | 6.1 | 0.00 | 0.00 | 0.00 | 40 | 1009.3 |
| 20260509213010 | 82 | 149 | 0.9 | 2.6 | 0.00 | 0.00 | 0.00 | 42 | 1009.4 |
| 20260509211515 | 82 | 154 | 0.0 | 3.5 | 0.00 | 0.00 | 0.00 | 37 | 1009.5 |
| 20260509210008 | 81 | 237 | 0.9 | 2.6 | 0.00 | 0.00 | 0.00 | 35 | 1009.8 |
| 20260509204506 | 81 | 155 | 0.9 | 3.5 | 0.00 | 0.00 | 0.00 | 35 | 1009.8 |
| 20260509203006 | 82 | 188 | 1.7 | 5.2 | 0.00 | 0.00 | 0.00 | 39 | 1010.0 |
| 20260509201505 | 81 | 255 | 1.7 | 6.1 | 0.00 | 0.00 | 0.00 | 39 | 1010.1 |
| 20260509200005 | 81 | 195 | 1.7 | 6.1 | 0.00 | 0.00 | 0.00 | 36 | 1010.3 |
| 20260509194504 | 81 | 202 | 2.6 | 4.3 | 0.00 | 0.00 | 0.00 | 41 | 1010.3 |
| 20260509193103 | 81 | 355 | 4.3 | 8.7 | 0.00 | 0.00 | 0.00 | 36 | 1010.5 |
| 20260509191601 | 81 | 52 | 0.0 | 5.2 | 0.00 | 0.00 | 0.00 | 40 | 1010.6 |
| 20260509190101 | 81 | 5 | 0.9 | 3.5 | 0.00 | 0.00 | 0.00 | 38 | 1010.7 |
| 20260509184606 | 80 | 209 | 2.6 | 6.1 | 0.00 | 0.00 | 0.00 | 39 | 1010.8 |
| 20260509183045 | 80 | 209 | 1.7 | 5.2 | 0.00 | 0.00 | 0.00 | 41 | 1010.7 |
| 20260509181549 | 80 | 234 | 2.6 | 6.1 | 0.00 | 0.00 | 0.00 | 41 | 1010.9 |
| 20260509180042 | 80 | 180 | 1.7 | 5.2 | 0.00 | 0.00 | 0.00 | 53 | 1010.8 |
| 20260509174541 | 79 | 55 | 0.9 | 4.3 | 0.00 | 0.00 | 0.00 | 48 | 1010.8 |
| 20260509173038 | 79 | 300 | 0.9 | 4.3 | 0.00 | 0.00 | 0.00 | 52 | 1010.8 |
| 20260509171535 | 78 | 240 | 0.9 | 2.6 | 0.00 | 0.00 | 0.00 | 52 | 1011.0 |
| 20260509170032 | 77 | 349 | 0.9 | 4.3 | 0.00 | 0.00 | 0.00 | 56 | 1011.1 |
| 20260509164527 | 76 | 5 | 1.7 | 5.2 | 0.00 | 0.00 | 0.00 | 54 | 1011.2 |